Home > Weather > Raleigh > Past weeks

Flag for USA Past Weather in Raleigh, North Carolina, USA — Yesterday and Last 2 Weeks

Now
66 °F

Passing clouds.


Feels Like: 66 °F
Forecast: 62 / 87 °F
Wind: No wind

Location: Raleigh-Durham International Airport

Current Time: May 26, 2016 at 6:52:19 AM

Latest Report: May 26, 2016 at 5:51 AM


Visibility: 8 mi

Pressure: 30.17 "Hg

Humidity: 84%

Dew Point: 61 °F

Location of RaleighLocation

Past Weather in Raleigh — Graph

°F

Raleigh Temperature Yesterday

Maximum temperature yesterday: 87 °F (at 2:51 PM)
Minimum temperature yesterday: 59 °F (at 2:51 AM)
Average temperature yesterday: 73 °F

High & Low Weather Summary for the Past Weeks

 TemperatureHumidityPressure
High87 °F (May 25, 2:51 PM)100% (May 12, 4:51 AM)30.29 "Hg (May 12, 4:51 AM)
Low43 °F (May 16, 4:51 AM)31% (May 15, 5:51 PM)29.72 "Hg (May 14, 5:51 PM)
Average65 °F75%30.05 "Hg
* Reported May 11 5:51 AM — May 26 5:51 AM, Raleigh, Weather by CustomWeather, © 2016

Note: Actual official high and low records may vary slightly from our data, if they occured in-between our weather recording intervals... More about our weather records

Advertising

Raleigh Weather History for the Previous 24 Hours

Scroll right to see more
 ConditionsComfort  
Time TempWeatherWind HumidityBarometerVisibility
5:51 AM
Thu, May 26
66 °FPassing clouds.No wind84%30.17 "Hg8 mi
4:51 AM64 °FPassing clouds.No wind87%30.15 "Hg10 mi
3:51 AM67 °FPassing clouds.No wind81%30.14 "Hg10 mi
2:51 AM68 °FPassing clouds.7 mph78%30.14 "Hg10 mi
1:51 AM69 °FPartly cloudy.7 mph73%30.14 "Hg10 mi
12:51 AM67 °FPassing clouds.No wind76%30.15 "Hg10 mi
11:51 PM
Wed, May 25
67 °FPassing clouds.No wind76%30.16 "Hg10 mi
10:51 PM69 °FPassing clouds.No wind68%30.16 "Hg10 mi
9:51 PM73 °FPassing clouds.No wind55%30.15 "Hg10 mi
8:51 PM71 °FPartly sunny.No wind66%30.14 "Hg10 mi
7:51 PM78 °FPartly sunny.No wind52%30.14 "Hg10 mi
6:51 PM83 °FPartly sunny.8 mph41%30.14 "Hg10 mi
5:51 PM85 °FScattered clouds.8 mph39%30.14 "Hg10 mi
4:51 PM86 °FScattered clouds.10 mph37%30.15 "Hg10 mi
3:51 PM86 °FScattered clouds.9 mph39%30.16 "Hg10 mi
2:51 PM87 °FScattered clouds.12 mph37%30.16 "Hg10 mi
1:51 PM85 °FScattered clouds.10 mph37%30.18 "Hg10 mi
12:51 PM85 °FScattered clouds.5 mph43%30.19 "Hg10 mi
11:51 AM83 °FScattered clouds.6 mph43%30.21 "Hg10 mi
10:51 AM80 °FScattered clouds.5 mph51%30.21 "Hg10 mi
9:51 AM76 °FScattered clouds.3 mph60%30.21 "Hg10 mi
8:51 AM70 °FScattered clouds.6 mph68%30.22 "Hg10 mi
7:51 AM64 °FScattered clouds.5 mph84%30.21 "Hg10 mi
6:51 AM61 °FPassing clouds.No wind87%30.20 "Hg10 mi
Weather by CustomWeather, © 2016

See weather overviewHow to use our weather pages